CAPE
0 0 0 12 272 113 40 4 53 30 18 113 45 270 186 536 676 631 252 47 44 45 87 132 126 175 303 233 162 175 351 452 446 428 469 740 1207 1316 1353 1330 1407 1241 1095 1029 981 771 346 671 1239
0 0 0 153 242 65 21 32 28 80 200 264 273 268 239 956 562 309 145 81 69 70 71 68 346 284 247 202 151 282 429 414 457 534 728 1131 1156 1170 1137 1146 945 802 720 635 644 823 693 418 757
0 0 0 248 88 52 22 67 156 179 222 121 191 222 252 810 136 75 216 147 125 88 74 190 196 330 216 171 173 305 288 304 400 626 851 1114 1160 1231 1263 975 691 267 41 6 6 56 441 428 478
0 0 0 183 69 11 43 155 261 132 100 89 0 119 635 309 301 620 445 323 132 58 26 241 209 299 167 136 170 238 202 197 419 872 970 1099 1088 940 967 734 386 45 19 186 393 453 283 138 579
0 0 20 53 22 17 120 274 274 255 135 0 0 135 425 645 754 826 707 246 16 0 53 207 237 237 133 77 164 186 132 147 320 874 1002 1020 1009 909 770 452 175 79 800 921 881 709 1005 765 239
0 0 34 73 21 34 223 414 471 254 149 130 8 196 502 841 888 759 415 3 0 0 0 124 286 234 114 72 116 134 120 112 221 676 928 895 831 736 557 310 156 155 548 784 1187 1274 1115 1496 1350
0 0 13 7 13 24 313 569 467 252 153 4 0 35 659 714 736 469 110 0 0 0 0 0 3 201 82 86 103 131 118 94 125 381 831 728 673 659 495 283 158 125 130 182 520 923 1047 1209 1095
0 0 0 0 0 10 265 524 580 113 381 17 0 70 475 738 303 126 0 0 0 0 0 0 0 0 0 1 86 116 125 92 81 191 405 644 646 260 292 581 187 82 157 46 203 460 672 865 874
0 0 0 0 0 1 194 448 531 384 156 9 56 29 257 470 44 0 0 0 0 0 0 0 0 0 0 0 15 75 87 64 50 56 39 62 101 112 125 169 82 83 285 5 19 235 252 521 608
0 0 0 0 0 0 99 256 591 414 111 214 195 174 415 108 0 0 0 0 0 0 0 0 0 0 0 0 0 0 30 49 84 74 122 137 201 114 93 204 144 167 116 2 0 0 213 193 110
0 0 0 0 0 0 143 263 561 305 31 74 106 13 2 0 0 0 0 0 0 0 0 0 0 0 0 0 5 6 11 68 264 303 352 321 212 280 269 253 314 316 21 144 13 15 26 43 63
0 0 0 0 0 4 236 346 568 205 38 46 0 0 0 0 0 0 0 0 0 0 0 0 0 0 0 0 0 0 0 2 26 110 293 346 645 677 637 331 323 401 186 76 28 26 23 65 47
0 0 0 0 0 1 213 347 453 297 91 93 0 0 0 0 0 0 0 0 0 0 0 0 7 6 0 0 0 0 0 0 0 104 288 369 654 1099 1042 707 419 256 266 103 18 24 27 29 39
0 0 0 0 0 0 284 354 476 496 285 21 0 0 0 0 0 0 0 0 0 0 0 0 48 113 0 0 0 0 0 0 81 237 417 670 893 1263 1307 1151 535 279 59 132 18 8 34 40 29
0 0 0 0 0 0 23 376 558 614 460 28 6 0 0 27 48 93 118 57 0 0 55 25 81 152 178 0 0 0 0 2 107 223 520 903 1266 1547 1732 1158 828 833 140 226 230 3 4 43 36
0 0 0 0 0 25 105 33 98 671 517 33 6 17 13 91 193 255 299 312 199 75 222 350 13 154 426 95 0 0 0 35 157 425 746 1182 1454 1508 1472 1142 606 323 384 212 124 22 14 51 44
0 0 0 0 0 65 229 22 58 676 562 284 47 87 95 125 451 448 488 524 534 463 437 812 489 95 598 511 96 31 39 119 195 417 687 993 1201 1251 1536 1371 685 1323 494 339 219 108 121 129 81
0 0 0 0 0 49 141 8 77 506 544 415 155 133 197 183 333 645 761 730 815 820 848 1135 1227 929 600 776 763 235 169 123 132 342 617 813 1263 1474 1842 1087 1458 1322 713 463 450 339 206 180 86
0 0 0 0 0 18 5 0 15 271 487 315 263 236 173 235 305 480 759 916 990 1104 1213 1328 1690 2043 1543 937 846 832 717 512 409 439 553 790 1220 1618 2104 1318 1704 1390 1020 993 1011 823 729 328 177
0 0 0 0 0 2 0 8 0 69 355 365 253 217 344 242 227 416 803 1010 1082 1153 1278 1501 1729 2200 2438 1511 1274 1041 1113 958 966 945 1254 1407 1399 1804 1808 1951 1633 1580 973 1455 1217 1075 608 462 344
0 0 0 0 0 0 0 0 0 17 71 207 426 410 257 375 244 336 620 1058 1065 1043 1179 1375 2088 2448 2537 2261 1662 1711 1773 1855 1692 1540 1776 1889 1781 1863 2075 2169 2075 1633 1498 1119 1420 1140 1029 395 576
0 0 0 0 0 0 0 0 0 0 0 16 95 288 382 243 303 283 378 799 1072 1136 1143 1378 1984 2831 2381 2336 2535 2660 1864 1854 1731 1799 1794 1860 2138 2050 2058 1998 1892 2001 1352 1267 1307 1126 1033 1154 417
0 0 0 0 0 0 0 0 0 0 0 0 15 96 233 248 500 316 327 390 680 994 926 1418 1793 2074 2145 2229 2359 2023 2067 1791 2205 2447 2168 2379 2076 2244 1907 1980 1848 2121 2302 1537 1623 1114 1162 781 1089
0 0 0 0 0 0 0 0 0 0 0 0 0 21 144 228 380 616 430 528 687 995 958 1149 1589 1919 2004 2123 2274 2497 2714 2393 2413 2503 2627 2829 2578 2989 2289 1987 2122 2091 2104 1843 1376 1423 1284 1230 1011
0 0 0 0 0 0 0 0 0 0 0 0 0 0 13 184 325 519 689 583 833 1044 1159 1097 1583 1900 1812 1920 2367 2515 2820 2940 2787 2862 2997 2488 2594 2565 1793 2267 2232 2243 1839 1417 1668 1530 1278 1192 1159
0 0 0 0 0 0 0 0 0 0 0 0 0 0 1 23 255 448 658 781 764 1018 1345 1147 1445 1773 1637 1529 1827 2466 2786 2147 2283 2573 2599 2544 2363 2153 1941 1925 1763 1319 1077 1282 1291 1110 978 806 584
0 0 0 0 0 0 0 0 0 0 0 0 0 21 82 197 143 295 536 664 849 964 1406 1265 1481 1695 1169 1126 1351 2072 2075 2485 2711 3529 2915 2593 2294 2299 1422 1209 746 723 877 899 941 759 516 473 350
0 0 0 0 0 0 0 0 0 0 0 0 0 2 146 408 341 130 553 682 902 1113 1603 1704 1659 1055 438 155 106 74 1554 2414 2814 2758 2307 2103 1632 1377 1117 993 982 519 591 541 375 315 167 42 7
0 0 0 0 0 0 0 0 7 0 0 0 0 0 417 822 963 764 837 1961 1829 2085 1977 1957 1455 340 260 310 230 429 1333 2539 2214 1966 1723 1570 1329 1188 989 833 688 345 165 25 18 1 0 0 1
0 0 0 0 0 0 0 0 0 0 0 0 102 140 899 1287 1534 1585 1711 1706 1924 1807 1858 934 484 363 241 107 54 963 1735 1899 1989 1554 1143 969 1098 1003 589 311 39 1 0 0 0 0 0 0 0
CIN
0 0 0 -52 -6 -4 0 0 -40 -80 -76 -44 -68 -4 -13 -2 0 -2 -40 -49 -44 -42 -58 -53 -81 -70 -63 -76 -121 -132 -100 -83 -99 -122 -117 -56 -14 -5 0 0 0 0 0 0 0 0 -11 -5 0
0 0 0 -37 -1 0 0 -48 -90 -51 -32 -32 -25 -10 -3 0 -37 -77 -77 -105 -63 -32 -50 -75 -65 -81 -95 -105 -144 -118 -95 -110 -125 -125 -83 -29 -19 -9 0 0 0 0 0 -1 -1 0 0 -12 -3
0 0 0 -1 -5 -6 0 -32 -5 -33 -45 -56 -53 -36 -10 0 -96 -110 -37 -67 -79 -50 -57 -92 -135 -75 -127 -131 -143 -109 -127 -140 -146 -113 -70 -26 -11 0 0 0 -4 -32 -104 -28 -30 -79 -21 -20 -19
0 0 0 -21 -1 -1 -27 -3 -7 -29 -70 -63 -3 -53 -18 -29 -20 -2 -8 -10 -61 -71 -88 -76 -145 -84 -111 -141 -140 -130 -154 -167 -133 -67 -49 -25 -13 -13 -1 -12 -36 -129 -134 -44 -30 -23 -38 -63 -19
0 0 -19 -6 0 -5 -12 -10 -8 -52 -78 0 0 -56 -19 -5 -6 -7 0 -31 -60 0 -76 -94 -107 -102 -130 -149 -156 -150 -179 -192 -148 -53 -31 -20 -13 -12 -17 -45 -76 -81 -5 -7 -11 -15 -9 -16 -37
0 0 0 0 0 -33 -4 -5 -6 -52 -92 -112 -85 -35 -2 -14 -13 -6 -7 -3 0 0 0 -113 -83 -97 -132 -168 -165 -179 -188 -195 -155 -59 -20 -17 -19 -26 -32 -72 -67 -51 -16 -11 -7 -9 -11 -6 -9
0 0 0 0 0 -10 -1 -5 -1 -36 -84 -7 -3 -94 0 -6 -13 -14 -77 0 0 0 0 0 -7 -99 -131 -162 -182 -181 -184 -200 -176 -110 -33 -33 -39 -28 -32 -64 -59 -54 -51 -46 -24 -8 -13 -11 -13
0 0 0 0 0 0 -7 -11 -10 -60 -51 -98 0 -78 -7 -7 -52 -86 0 0 0 0 0 0 0 0 0 -13 -207 -186 -183 -216 -214 -143 -77 -40 -35 -55 -55 -36 -57 -76 -54 -119 -41 -24 -17 -16 -18
0 0 0 0 0 -2 -12 -5 -18 -36 -72 -46 -144 -91 -44 -46 -110 0 0 0 0 0 0 0 0 0 0 0 -79 -238 -213 -214 -215 -179 -183 -147 -7 -8 -24 -64 -81 -85 -39 -64 -76 -54 -49 -26 -28
0 0 0 0 0 0 -18 -9 -16 -11 -60 -67 -103 -102 -83 -108 0 0 0 0 0 0 0 0 0 0 0 0 0 0 -154 -127 -75 -63 -55 -4 -5 -4 -26 -19 -75 -67 -99 -56 -12 0 -50 -98 -66
0 0 0 0 0 0 -3 -5 -16 -15 -43 -61 -100 -206 -31 0 0 0 0 0 0 0 0 0 0 0 0 0 -93 -94 -119 -67 -30 -28 -9 -5 -2 -2 -2 -21 -16 -6 -43 -81 -12 -2 -15 -92 -94
0 0 0 0 0 -4 0 -4 -20 -19 -50 -64 0 0 0 0 0 0 0 0 0 0 0 0 0 0 0 0 0 0 0 -10 -56 -27 -17 -3 0 0 0 0 -1 -1 -9 -63 0 0 -139 -83 -100
0 0 0 0 0 -3 -7 -3 -5 -14 -81 -78 0 0 0 0 0 0 0 0 0 0 0 0 -66 -96 0 0 0 0 0 0 0 -27 -12 0 0 0 -2 0 -1 -15 -13 -92 0 0 0 0 0
0 0 0 0 0 0 -3 -2 -13 -13 -52 -95 0 0 0 0 0 0 0 0 0 0 0 0 -171 -180 0 0 0 0 0 0 -67 -22 -2 -11 -1 0 0 0 0 -4 -132 -49 0 0 0 0 0
0 0 0 0 0 0 -12 -3 -5 -23 -34 -75 -158 0 0 -92 -66 -67 -66 -70 0 0 -128 -180 -170 -158 -176 0 0 0 0 -18 -68 -37 -25 -13 -5 -2 0 -4 0 0 -30 -17 -20 -2 0 0 0
0 0 0 0 0 -57 -31 0 -3 -34 -16 -42 -88 -157 -161 -97 -39 -52 -55 -62 -84 -105 -103 -118 -131 -128 -122 -167 0 0 0 -98 -67 -22 -3 -7 -2 -10 -14 0 0 -2 -1 -23 -53 -15 -5 -29 -51
0 0 0 0 0 -38 -24 -1 -16 -26 -16 -15 -63 -76 -92 -105 -70 -48 -49 -53 -53 -79 -81 -72 -91 -108 -86 -122 -146 -157 -119 -125 -63 -30 -8 -2 -2 0 -11 0 0 -2 0 -6 -12 -18 -16 -43 -25
0 0 0 0 0 -52 -14 -8 -16 -25 -17 -15 -36 -58 -69 -111 -86 -54 -48 -49 -47 -52 -66 -46 -50 -66 -94 -82 -86 -90 -98 -101 -89 -36 -7 -2 0 0 -1 0 0 0 0 -11 -26 -2 -3 -8 -14
0 0 0 0 0 -53 -47 0 -11 -31 -25 -16 -28 -45 -52 -67 -87 -80 -50 -40 -37 -44 -64 -67 -54 -54 -67 -83 -67 -53 -48 -49 -49 -31 -28 -13 -3 0 0 0 0 0 0 0 0 0 0 -22 -19
0 0 0 0 0 -53 -22 -44 0 -13 -29 -26 -27 -30 -46 -49 -79 -78 -69 -60 -55 -52 -75 -85 -77 -64 -52 -68 -59 -37 -17 -11 -11 -4 -5 -15 -7 0 0 -1 0 0 0 0 0 0 -8 -23 -22
0 0 0 0 0 0 0 0 0 -50 -36 -50 -40 -33 -30 -43 -69 -65 -80 -75 -81 -79 -90 -97 -89 -83 -78 -59 -61 -53 -27 -10 -7 -3 -1 -4 -6 0 0 0 0 0 0 0 0 0 0 -24 0
0 0 0 0 0 0 0 0 0 0 0 -86 -55 -57 -43 -45 -49 -53 -77 -86 -94 -74 -80 -102 -112 -95 -110 -89 -27 -27 -23 -2 0 0 0 0 0 0 0 0 0 0 -1 0 0 0 0 0 -6
0 0 0 0 0 0 0 0 0 0 0 0 -47 -37 -41 -40 -37 -54 -55 -67 -78 -91 -97 -87 -126 -148 -129 -117 -64 -53 -31 0 0 0 0 0 0 -5 0 0 0 0 0 0 -1 0 0 0 0
0 0 0 0 0 0 0 0 0 0 0 0 0 -18 -24 -32 -40 -39 -58 -60 -53 -55 -93 -113 -130 -159 -157 -127 -113 -57 -7 -4 -1 0 0 0 0 0 -2 0 -1 -1 0 -2 -14 -4 -1 0 0
0 0 0 0 0 0 0 0 0 0 0 0 0 0 -5 -24 -41 -50 -36 -45 -58 -46 -70 -107 -154 -156 -176 -174 -121 -86 -40 -11 -5 0 0 -1 0 0 0 0 -3 0 0 -3 -3 0 0 0 0
0 0 0 0 0 0 0 0 0 0 0 0 0 0 -46 -60 -30 -47 -49 -62 -51 -39 -59 -90 -132 -133 -156 -154 -110 -88 -54 -54 -22 0 0 0 0 0 0 0 0 -5 -13 -1 0 0 0 0 0
0 0 0 0 0 0 0 0 0 0 0 0 0 -69 -61 -93 -86 -53 -63 -83 -60 -29 -63 -88 -159 -165 -199 -130 -49 0 -29 -43 -13 0 0 0 0 0 -5 0 -14 -10 0 -3 0 0 0 -1 -3
0 0 0 0 0 0 0 0 0 0 0 0 0 -9 -31 -191 -152 -113 -85 -102 -106 -72 -77 -115 -188 -157 -11 -77 -28 -102 -7 -8 -1 -1 -1 -1 -1 0 0 0 0 -12 -8 -3 -5 -5 -2 -4 0
0 0 0 0 0 0 0 0 -1 0 0 0 0 0 -57 -134 -194 -174 -149 -184 -152 -116 -124 -115 -139 -146 -39 -96 -41 -88 -20 -1 -1 -4 -7 -1 0 0 0 0 0 -5 -1 0 -32 -10 0 0 0
0 0 0 0 0 0 0 0 0 0 0 0 -14 -28 -79 -190 -211 -233 -231 -219 -133 -124 -76 -199 -174 -110 -30 -10 -167 -6 0 0 0 0 -5 -2 0 0 0 -1 -13 0 0 0 0 0 0 0 0
Wind_Speed
nan nan nan nan 16 17 nan nan nan nan nan 10 nan 13 3 6 7 3 14 nan nan nan nan 14 11 13 14 14 16 17 17 17 16 16 17 19 18 21 22 21 21 19 19 18 17 18 16 15 17
nan nan nan 11 21 nan nan nan nan nan 5 7 8 10 8 3 3 8 12 nan nan nan nan nan 15 15 14 15 16 16 16 18 18 19 20 20 21 22 22 22 21 21 20 18 18 18 19 19 18
nan nan nan 13 nan nan nan nan 2 2 7 10 10 8 9 3 9 nan 14 21 19 nan nan 17 16 15 14 14 17 18 18 19 20 20 20 20 19 20 19 19 18 16 nan nan nan nan 10 13 14
nan nan nan 24 nan nan nan 10 13 6 0 nan nan 5 4 5 9 10 20 20 20 nan nan 15 14 13 14 16 17 18 17 17 18 19 20 20 18 15 14 14 13 nan nan 11 9 7 9 12 14
nan nan nan nan nan nan 8 8 8 8 10 nan nan 9 7 7 10 18 21 20 nan nan nan 15 15 14 15 nan 17 18 18 17 18 18 17 16 14 11 12 12 10 nan 11 11 8 9 10 12 15
nan nan nan nan nan nan 8 13 13 13 15 16 nan 14 6 11 16 18 19 nan nan nan nan 14 15 16 16 nan 18 19 19 17 17 17 16 14 12 9 10 11 10 12 13 12 11 10 8 9 14
nan nan nan nan nan nan 7 13 18 13 17 nan nan nan 11 19 19 19 19 nan nan nan nan nan nan 15 nan nan 19 19 17 nan 16 18 20 19 14 9 9 12 12 12 12 11 10 11 11 9 11
nan nan nan nan nan nan 10 15 13 15 8 nan nan nan 23 19 20 18 nan nan nan nan nan nan nan nan nan nan nan 18 19 nan nan 18 20 19 15 10 11 13 13 nan 9 nan 7 7 9 11 12
nan nan nan nan nan nan 9 15 12 9 15 nan nan nan 21 24 nan nan nan nan nan nan nan nan nan nan nan nan nan nan nan nan nan nan nan nan 16 15 14 10 nan nan 7 nan nan 6 10 14 14
nan nan nan nan nan nan nan 15 16 16 15 13 11 11 20 23 nan nan nan nan nan nan nan nan nan nan nan nan nan nan nan nan nan nan 21 21 15 9 nan 10 14 12 10 nan nan nan 12 17 12
nan nan nan nan nan nan 9 14 16 16 nan nan 16 nan nan nan nan nan nan nan nan nan nan nan nan nan nan nan nan nan nan nan 19 21 22 19 19 18 16 15 18 17 nan 15 nan nan nan nan nan
nan nan nan nan nan nan 11 15 14 14 nan nan nan nan nan nan nan nan nan nan nan nan nan nan nan nan nan nan nan nan nan nan nan 20 21 18 18 17 13 12 13 16 12 nan nan nan nan nan nan
nan nan nan nan nan nan 13 15 15 14 nan nan nan nan nan nan nan nan nan nan nan nan nan nan nan nan nan nan nan nan nan nan nan 21 23 19 17 15 15 16 15 16 16 16 nan nan nan nan nan
nan nan nan nan nan nan 13 16 16 20 15 nan nan nan nan nan nan nan nan nan nan nan nan nan nan 16 nan nan nan nan nan nan nan 18 20 22 19 19 19 20 19 22 nan 21 nan nan nan nan nan
nan nan nan nan nan nan nan 18 21 24 20 nan nan nan nan nan nan nan 13 nan nan nan nan nan nan 16 15 nan nan nan nan nan 19 19 18 19 20 23 14 12 17 22 21 22 17 nan nan nan nan
nan nan nan nan nan nan 13 nan nan 28 22 nan nan nan nan nan 17 14 12 12 13 nan 14 14 nan 17 18 nan nan nan nan nan 16 17 16 16 15 15 16 16 16 19 19 19 19 nan nan nan nan
nan nan nan nan nan nan 9 nan nan 28 27 26 nan nan nan 23 20 17 15 13 13 14 14 16 17 nan 17 14 nan nan nan 16 18 19 16 14 12 15 15 17 18 18 17 17 16 21 16 18 nan
nan nan nan nan nan nan 13 nan nan 23 29 28 20 19 21 24 27 21 17 15 14 13 14 15 16 14 16 14 14 17 19 21 21 18 17 17 16 15 14 15 16 15 16 17 15 15 20 16 nan
nan nan nan nan nan nan nan nan nan 18 20 20 19 19 18 18 23 21 17 16 16 16 16 14 15 17 18 18 19 19 17 19 18 18 17 17 16 15 16 14 20 18 17 16 18 17 21 20 21
nan nan nan nan nan nan nan nan nan nan 13 14 20 19 17 17 19 21 13 17 18 19 22 19 18 20 20 18 15 15 11 14 15 15 12 14 14 13 15 14 15 17 19 22 24 19 17 19 20
nan nan nan nan nan nan nan nan nan nan nan 6 9 12 13 16 20 17 16 17 22 21 23 22 24 24 25 20 20 16 11 11 14 15 13 9 11 16 19 18 12 13 16 22 23 20 21 24 29
nan nan nan nan nan nan nan nan nan nan nan nan nan 11 11 15 15 20 20 17 21 22 20 21 22 22 23 25 21 19 16 15 16 12 15 12 15 19 20 15 17 15 20 18 20 19 15 18 24
nan nan nan nan nan nan nan nan nan nan nan nan nan nan 10 14 17 20 25 25 22 26 26 25 27 26 26 26 19 19 14 14 14 14 14 15 13 12 14 21 23 22 21 19 21 20 14 17 16
nan nan nan nan nan nan nan nan nan nan nan nan nan nan 3 10 15 17 19 22 23 25 30 29 33 31 30 29 26 21 17 12 12 15 15 16 15 15 16 18 22 22 22 18 24 24 29 34 32
nan nan nan nan nan nan nan nan nan nan nan nan nan nan nan 10 17 19 22 26 27 30 30 34 39 39 37 34 28 26 22 18 13 13 17 18 17 17 16 19 23 23 22 21 27 32 26 29 34
nan nan nan nan nan nan nan nan nan nan nan nan nan nan nan nan 11 17 17 21 25 31 33 36 44 48 51 45 37 38 31 21 18 15 20 22 22 21 23 26 26 27 24 27 30 32 31 35 36
nan nan nan nan nan nan nan nan nan nan nan nan nan nan nan 20 15 13 17 18 21 32 37 44 50 57 63 66 59 43 39 23 23 19 24 25 22 26 27 29 29 29 32 32 33 35 35 38 39
nan nan nan nan nan nan nan nan nan nan nan nan nan nan 26 23 26 21 23 22 25 31 42 52 56 65 64 55 60 nan 28 24 24 27 25 27 29 29 28 31 34 35 36 33 32 35 39 nan nan
nan nan nan nan nan nan nan nan nan nan nan nan nan nan 30 28 32 34 37 41 39 43 43 48 57 64 63 75 82 32 25 26 26 32 30 31 34 36 35 39 39 39 41 nan nan nan nan nan nan
nan nan nan nan nan nan nan nan nan nan nan nan 18 21 30 28 34 36 38 37 47 41 42 45 55 59 61 66 nan 42 33 36 39 35 33 33 38 46 47 47 nan nan nan nan nan nan nan nan nan
Wind_Direction
nan nan nan nan 51 51 nan nan nan nan nan 88 nan 90 159 151 139 187 345 nan nan nan nan 339 342 336 330 323 309 302 304 311 314 315 314 312 316 311 298 303 299 298 294 297 300 298 301 297 289
nan nan nan 127 72 nan nan nan nan nan 71 39 44 54 65 32 108 350 6 nan nan nan nan nan 348 341 335 324 317 316 317 322 321 321 318 316 310 309 308 307 306 302 302 298 291 291 301 305 299
nan nan nan 118 nan nan nan nan 249 340 61 67 50 88 82 85 346 nan 332 357 344 nan nan 325 346 342 335 327 325 326 328 329 325 324 322 316 311 308 308 308 310 313 nan nan nan nan 320 325 317
nan nan nan 80 nan nan nan 302 295 315 229 nan nan 12 12 336 4 355 355 352 338 nan nan 334 355 356 344 336 334 335 335 335 332 332 331 326 325 325 320 316 319 nan nan 321 321 345 349 336 325
nan nan nan nan nan nan 300 313 17 35 37 nan nan 11 329 355 348 342 355 353 nan nan nan 354 2 355 350 nan 347 346 344 349 351 349 344 339 336 332 329 319 323 nan 316 302 300 300 309 333 339
nan nan nan nan nan nan 330 359 18 42 26 18 nan 4 348 358 347 3 357 nan nan nan nan 347 358 0 1 nan 3 359 353 349 354 354 347 345 345 339 324 307 323 325 318 302 295 295 298 310 317
nan nan nan nan nan nan 323 0 36 41 28 nan nan nan 359 8 360 10 4 nan nan nan nan nan nan 4 nan nan 9 2 356 nan 350 353 348 350 347 342 322 307 315 326 312 310 308 315 318 316 325
nan nan nan nan nan nan 333 12 32 49 40 nan nan nan 14 360 1 6 nan nan nan nan nan nan nan nan nan nan nan 12 7 nan nan 351 353 4 355 354 351 335 321 nan 317 nan 341 337 332 345 355
nan nan nan nan nan nan 339 10 6 14 2 nan nan nan 351 351 nan nan nan nan nan nan nan nan nan nan nan nan nan nan nan nan nan nan nan nan 19 13 5 282 nan nan 349 nan nan 348 352 356 340
nan nan nan nan nan nan nan 12 342 11 12 2 16 349 343 350 nan nan nan nan nan nan nan nan nan nan nan nan nan nan nan nan nan nan 17 23 16 22 nan 338 349 350 360 nan nan nan 359 27 356
nan nan nan nan nan nan 5 344 337 5 nan nan 1 nan nan nan nan nan nan nan nan nan nan nan nan nan nan nan nan nan nan nan 16 15 21 14 15 17 21 0 360 351 nan 4 nan nan nan nan nan
nan nan nan nan nan nan 4 321 346 1 nan nan nan nan nan nan nan nan nan nan nan nan nan nan nan nan nan nan nan nan nan nan nan 8 10 11 14 3 12 6 343 347 340 nan nan nan nan nan nan
nan nan nan nan nan nan 353 344 337 345 nan nan nan nan nan nan nan nan nan nan nan nan nan nan nan nan nan nan nan nan nan nan nan 358 359 360 1 347 354 345 347 337 334 330 nan nan nan nan nan
nan nan nan nan nan nan 11 344 345 329 331 nan nan nan nan nan nan nan nan nan nan nan nan nan nan 7 nan nan nan nan nan nan nan 352 350 357 359 342 349 343 338 329 nan 337 nan nan nan nan nan
nan nan nan nan nan nan nan 341 360 328 340 nan nan nan nan nan nan nan 16 nan nan nan nan nan nan 356 3 nan nan nan nan nan 344 343 344 352 353 346 342 326 337 328 328 328 331 nan nan nan nan
nan nan nan nan nan nan 19 nan nan 334 339 nan nan nan nan nan 12 12 10 17 2 nan 350 352 nan 344 351 nan nan nan nan nan 327 325 334 350 351 340 342 340 324 317 330 330 322 nan nan nan nan
nan nan nan nan nan nan 18 nan nan 337 341 330 nan nan nan 7 14 7 8 12 13 353 343 343 348 nan 344 339 nan nan nan 324 316 311 314 322 338 334 334 333 327 328 325 324 320 321 334 327 nan
nan nan nan nan nan nan 346 nan nan 333 347 332 336 354 6 10 15 12 17 25 11 356 351 345 341 344 331 320 322 328 330 330 334 327 314 308 318 325 318 319 314 324 321 325 320 316 320 321 nan
nan nan nan nan nan nan nan nan nan 316 345 328 321 339 360 13 7 20 38 30 23 5 348 349 339 335 326 329 334 342 355 355 355 352 338 321 321 324 319 316 310 311 315 317 315 320 320 321 319
nan nan nan nan nan nan nan nan nan nan 342 327 325 337 350 2 0 6 14 12 7 1 356 350 348 340 335 324 337 346 338 345 349 343 340 349 7 359 347 350 332 333 316 310 310 308 311 304 305
nan nan nan nan nan nan nan nan nan nan nan 330 332 334 340 6 352 359 355 355 355 353 359 3 358 347 334 332 316 326 310 318 327 331 344 352 358 349 340 342 332 330 340 324 324 320 305 295 296
nan nan nan nan nan nan nan nan nan nan nan nan nan 326 336 338 355 341 347 341 340 340 344 355 355 353 342 328 314 314 313 324 327 331 318 313 335 344 349 356 345 326 334 321 333 323 320 302 286
nan nan nan nan nan nan nan nan nan nan nan nan nan nan 329 328 342 337 341 343 334 331 326 333 337 334 335 333 324 313 310 299 306 307 310 313 323 338 346 339 338 330 331 319 323 306 308 327 320
nan nan nan nan nan nan nan nan nan nan nan nan nan nan 315 302 328 339 339 330 327 331 328 324 329 326 322 323 317 311 303 290 283 305 305 304 310 321 340 340 339 330 325 325 325 316 302 299 295
nan nan nan nan nan nan nan nan nan nan nan nan nan nan nan 292 295 321 326 323 325 324 319 311 324 319 316 307 303 302 297 288 293 297 293 301 307 311 322 325 331 326 321 307 317 316 305 293 295
nan nan nan nan nan nan nan nan nan nan nan nan nan nan nan nan 281 295 318 327 324 309 311 310 310 315 308 299 285 283 273 276 276 287 295 296 298 303 307 308 311 313 311 309 308 307 303 299 299
nan nan nan nan nan nan nan nan nan nan nan nan nan nan nan 233 255 288 279 293 306 303 306 305 300 296 291 286 272 276 253 256 266 267 279 288 295 298 304 304 307 308 306 301 303 300 301 294 296
nan nan nan nan nan nan nan nan nan nan nan nan nan nan 254 237 238 268 261 264 283 293 292 290 290 281 282 272 250 nan 217 247 269 274 286 293 290 296 302 304 304 300 304 303 297 296 293 nan nan
nan nan nan nan nan nan nan nan nan nan nan nan nan nan 249 253 251 248 260 253 270 277 279 282 281 285 277 279 273 333 312 274 314 306 282 284 290 291 294 296 302 301 293 nan nan nan nan nan nan
nan nan nan nan nan nan nan nan nan nan nan nan 230 242 257 259 270 273 276 274 269 285 286 281 278 279 279 285 nan 313 319 315 307 299 285 276 284 289 294 295 nan nan nan nan nan nan nan nan nan